Change the Weather History Date:

Friday, November 11, 2011

  Actual Average Record
Temperature  
Mean Temperature 39 °F 35 °F  
Max Temperature 59 °F 46 °F 72 °F (1990)
Min Temperature 19 °F 24 °F -14 °F (1911)
Degree Days  
Heating Degree Days 26 30  
Month to date heating degree days 359 308  
Since 1 July heating degree days 1034 1216  
Cooling Degree Days 0 0  
Month to date cooling degree days 0 0  
Year to date cooling degree days 358 406  
Moisture  
Dew Point 12 °F    
Average Humidity 43    
Maximum Humidity 74    
Minimum Humidity 12    
Precipitation  
Precipitation 0.00 in 0.01 in 0.66 in (1947)
Month to date precipitation 0.11 0.17  
Year to date precipitation 12.55 10.50  
Snow  
Snow 0.00 in 0.10 in 999.00 in (2002)
Month to date snowfall 2.0 1.3  
Since 1 July snowfall 2.0 5.3  
Since 1 September snowfall 2.0 5.0  
Snow Depth 0.00 in    
Sea Level Pressure  
Sea Level Pressure 29.71 in    
Wind  
Wind Speed 6 mph (SSW)    
Max Wind Speed 20 mph    
Max Gust Speed 28 mph    
Visibility 10 miles    
Events      
T = Trace of Precipitation, MM = Missing Value Source: NWS Daily Summary

Daily Weather History Graph

Daily Weather History Graph

Search for Another Location

Airport or City:

Trip Planner

Search our weather history database for the weather conditions in past years. The results will help you decide how hot, cold, wet, or windy it might be!

Date:

Astronomy

Nov. 11, 2011 Rise Set
Actual Time 7:24 AM MST 4:59 PM MST
Civil Twilight 6:51 AM MST 5:31 PM MST
Nautical Twilight 6:15 AM MST 6:08 PM MST
Astronomical Twilight 5:39 AM MST 6:43 PM MST
Moon 5:24 PM MST (11/11) 8:21 AM MST (11/11)
Length of Visible Light 10h 40m
Length of Day
9h 35m
Full, 99% of the Moon is Illuminated
Nov 11
Full
Nov 18
Last Quarter
Nov 24
New
Dec 2
First Quarter
Dec 10
Full

Hourly Weather History & Observations

Time (MST) Temp. Windchill Dew Point Humidity Pressure Visibility Wind Dir Wind Speed Gust Speed Precip Events Conditions
12:53 AM 27.0 °F 23.0 °F 16.0 °F 63% 30.03 in - SW 3.5 mph - N/A   Clear
1:53 AM 24.8 °F - 15.8 °F 69% 29.90 in - Calm Calm - N/A   Clear
2:53 AM 25.0 °F - 15.1 °F 66% 30.00 in - Calm Calm - N/A   Clear
3:53 AM 26.1 °F 19.4 °F 15.1 °F 63% 29.98 in - SW 5.8 mph - N/A   Clear
4:53 AM 24.8 °F - 14.0 °F 64% 29.85 in - Calm Calm - N/A   Clear
5:53 AM 23.0 °F - 15.1 °F 72% 29.97 in - Calm Calm - N/A   Clear
5:59 AM 23.0 °F 18.4 °F 15.8 °F 74% 29.83 in 10.0 mi WSW 3.5 mph - N/A   Clear
6:53 AM 23.0 °F - 15.1 °F 72% 29.94 in 10.0 mi Calm Calm - N/A   Clear
7:53 AM 21.2 °F - 14.0 °F 74% 29.80 in 10.0 mi Calm Calm - N/A   Clear
8:53 AM 30.9 °F 27.5 °F 17.1 °F 57% 29.90 in 10.0 mi West 3.5 mph - N/A   Clear
9:53 AM 34.0 °F - 21.0 °F 59% 29.87 in 10.0 mi Calm Calm - N/A   Clear
10:53 AM 37.9 °F - 21.0 °F 51% 29.82 in 10.0 mi Calm Calm - N/A   Clear
11:53 AM 44.1 °F 42.5 °F 18.0 °F 35% 29.76 in 10.0 mi West 3.5 mph - N/A   Clear
12:53 PM 50.0 °F - 18.0 °F 28% 29.70 in 10.0 mi North 4.6 mph - N/A   Clear
1:53 PM 55.0 °F - 15.1 °F 21% 29.64 in 10.0 mi ENE 4.6 mph - N/A   Clear
2:53 PM 57.9 °F - 10.0 °F 15% 29.58 in 10.0 mi Calm Calm - N/A   Clear
3:53 PM 57.0 °F - 6.1 °F 13% 29.55 in 10.0 mi South 11.5 mph 19.6 mph N/A   Clear
4:53 PM 55.0 °F - 3.0 °F 12% 29.52 in 10.0 mi SSW 10.4 mph - N/A   Clear
5:53 PM 52.0 °F - 1.9 °F 13% 29.51 in 10.0 mi South 8.1 mph 19.6 mph N/A   Clear
6:53 PM 52.0 °F - 6.1 °F 16% 29.49 in 10.0 mi South 15.0 mph - N/A   Partly Cloudy
7:53 PM 51.1 °F - 6.1 °F 16% 29.47 in 10.0 mi South 11.5 mph - N/A   Clear
8:53 PM 51.1 °F - 7.0 °F 17% 29.43 in 10.0 mi South 15.0 mph 21.9 mph N/A   Clear
9:53 PM 51.1 °F - 7.0 °F 17% 29.41 in 10.0 mi South 12.7 mph 23.0 mph N/A   Clear
10:53 PM 50.0 °F - 8.1 °F 18% 29.39 in 10.0 mi South 15.0 mph 19.6 mph N/A   Clear
11:53 PM 48.9 °F - 9.0 °F 20% 29.37 in 10.0 mi South 11.5 mph - N/A   Scattered Clouds